Santander Airport, Spain

5:05 AM CEST en Abril 22, 2018 (GMT +0200)
Santander Airport

Tiempo Historia de LEXJ - Abril, 2018

Change the Weather History Date:

Lunes, Abril 16, 2018

  Actual Average Record
Temperature  
Temperatura media 56 ° F -  
Temperatura máxima 63 ° F 60 ° F 73 ° F (2003)
Temperatura mínima 50 ° F 48 ° F 39 ° F (1999)
Degree Days  
Grados día de calefacción 8    
Growing Degree Days 6 (Base 50)    
Moisture  
Punto de rocío 50 ° F    
Average Humidity 81    
Maximum Humidity 100    
Minimum Humidity 49    
Precipitación  
Precipitación 0.12 pul - - ()
Presión al nivel del mar  
Presión al nivel del mar 30.06 pul    
Viento  
Velocidad del viento 6 mph ()    
Velocidad máxima del viento 18 mph    
Max Gust Speed -    
Visibilidad 6.7 Millas    
Eventos Lluvia    
Averages and records for this station are not official NWS values.
T = Trace of Precipitation, MM = Missing Value Source: Averaged Metar Reports

Daily Weather History Graph

Daily Weather History Graph

Search for Another Location

Airport or City:

Astronomía

Apr. 16, 2018 Salida Puesta
Hora real 7:31 AM CEST 8:59 PM CEST
Crepúsculo civil 7:01 AM CEST 9:29 PM CEST
Crepúsculo náutico 6:25 AM CEST 10:05 PM CEST
Crepúsculo astronómico 5:47 AM CEST 10:43 PM CEST
Luna 8:07 AM CEST (4/16) 9:31 PM CEST (4/16)
Horas de luz 14h 27m
Horas de luz
13h 27m
Luna nueva, 0% of the Moon is Illuminated
Abr 16
Luna nueva
Abr 22
Cuarto creciente
Abr 30
Luna llena
May 8
Cuarto menguante
May 15
Nueva

Hourly Weather History & Observations

Hora (CEST) Temp. Punto de rocío Humedad Presión Visibilidad Wind Dir Velocidad del viento Velocidad de ráfagas Precip Eventos Condiciones
12:00 AM 54 ° F 49 ° F 79% 30.03 pul - ONO 6.9 mph - -   Precipitación desconocida
12:00 AM 53.6 ° F 48.2 ° F 82% 30.01 pul 5.0 mi ONO 3.5 mph - N/A Lluvia Lluvia débil
12:30 AM 51.8 ° F 50.0 ° F 94% 30.04 pul 5.0 mi SO 3.5 mph - N/A Lluvia Lluvia débil
1:00 AM 51.8 ° F 50.0 ° F 94% 30.04 pul 4.3 mi OSO 3.5 mph - N/A Lluvia Lluvia débil
1:30 AM 51.8 ° F 51.8 ° F 100% 30.04 pul 3.7 mi Oeste 3.5 mph - N/A Lluvia Lluvia débil
2:00 AM 51 ° F 51 ° F 98% 30.05 pul - Oeste 3.5 mph - -   Precipitación desconocida
2:00 AM 51.8 ° F 51.8 ° F 100% 30.04 pul 5.0 mi Oeste 3.5 mph - N/A Lluvia Lluvia débil
2:30 AM 51.8 ° F 50.0 ° F 94% 30.04 pul 5.0 mi OSO 4.6 mph - N/A Lluvia Lluvia débil
3:00 AM 51.8 ° F 50.0 ° F 94% 30.04 pul 6.2 mi OSO 3.5 mph - N/A Lluvia Lluvia débil
3:30 AM 50.0 ° F 50.0 ° F 100% 30.04 pul 5.6 mi SO 3.5 mph - N/A Lluvia Lluvia débil
4:00 AM 51 ° F 50 ° F 94% 30.05 pul - SSO 4.6 mph - -   Precipitación desconocida
4:00 AM 50.0 ° F 50.0 ° F 100% 30.04 pul 5.6 mi SSO 3.5 mph - N/A Lluvia Lluvia débil
4:30 AM 50.0 ° F 50.0 ° F 100% 30.04 pul 5.6 mi SSO 4.6 mph - N/A Lluvia Lluvia débil
5:00 AM 50.0 ° F 50.0 ° F 100% 30.04 pul 5.6 mi SO 5.8 mph - N/A Lluvia Lluvia débil
5:30 AM 50.0 ° F 50.0 ° F 100% 30.04 pul 4.3 mi SO 4.6 mph - N/A Lluvia Lluvia débil
6:00 AM 50 ° F 50 ° F 98% 30.06 pul - SSO 5.8 mph - -   Precipitación desconocida
6:00 AM 50.0 ° F 50.0 ° F 100% 30.04 pul 5.0 mi SO 5.8 mph - N/A Lluvia Lluvia débil
6:30 AM 50.0 ° F 50.0 ° F 100% 30.04 pul 5.0 mi SO 4.6 mph - N/A Lluvia Lluvia débil
7:00 AM 50 ° F 49 ° F 96% 30.07 pul - SO 4.6 mph - -   Precipitación desconocida
7:00 AM 50.0 ° F 50.0 ° F 100% 30.06 pul 6.2 mi SO 3.5 mph - N/A   Muy nublado
7:30 AM 50.0 ° F 50.0 ° F 100% 30.06 pul 6.2 mi SSO 4.6 mph - N/A Lluvia Lluvia débil
8:00 AM 50 ° F 49 ° F 96% 30.08 pul 12 mi SSO 5.8 mph - - Lluvia Lluvia débil
8:00 AM 50.0 ° F 50.0 ° F 100% 30.06 pul 6.2 mi SSO 5.8 mph - N/A Lluvia Lluvia débil
8:30 AM 50.0 ° F 48.2 ° F 94% 30.09 pul 6.2 mi OSO 5.8 mph - N/A   Muy nublado
9:00 AM 52 ° F 49 ° F 85% 30.10 pul - SSO 6.9 mph - -  
9:00 AM 51.8 ° F 48.2 ° F 88% 30.09 pul 6.2 mi SSO 4.6 mph - N/A   Muy nublado
9:30 AM 53.6 ° F 48.2 ° F 82% 30.09 pul 6.2 mi SO 4.6 mph - N/A   Nubes dispersas
10:00 AM 56 ° F 49 ° F 71% 30.11 pul - Sur 8.1 mph - -  
10:00 AM 55.4 ° F 48.2 ° F 77% 30.09 pul 6.2 mi SSO 5.8 mph - N/A   Parcialmente nublado
10:30 AM 55.4 ° F 48.2 ° F 77% 30.09 pul 6.2 mi SO 5.8 mph - N/A   Parcialmente nublado
11:00 AM 58 ° F 47 ° F 58% 30.12 pul 16 mi OSO 5.8 mph - -   Parcialmente nublado
11:00 AM 57.2 ° F 46.4 ° F 67% 30.09 pul 6.2 mi SO 5.8 mph - N/A   Parcialmente nublado
11:30 AM 59.0 ° F 46.4 ° F 63% 30.09 pul 6.2 mi SSO 3.5 mph - N/A   Parcialmente nublado
12:00 PM 62 ° F 47 ° F 49% 30.12 pul - ENE 2.3 mph - -  
12:00 PM 60.8 ° F 48.2 ° F 63% 30.09 pul 6.2 mi Este 3.5 mph - N/A   Parcialmente nublado
12:30 PM 59.0 ° F 46.4 ° F 63% 30.09 pul 6.2 mi NE 3.5 mph - N/A   Parcialmente nublado
1:00 PM 59.0 ° F 48.2 ° F 67% 30.09 pul 6.2 mi NNE 4.6 mph - N/A   Parcialmente nublado
1:30 PM 60.8 ° F 50.0 ° F 68% 30.09 pul 6.2 mi NNE 4.6 mph - N/A   Parcialmente nublado
2:00 PM 62 ° F 49 ° F 52% 30.11 pul 16 mi ENE 11.5 mph - -   Parcialmente nublado
2:00 PM 57.2 ° F 48.2 ° F 72% 30.09 pul 6.2 mi NE 9.2 mph - N/A   Nubes dispersas
2:30 PM 59.0 ° F 48.2 ° F 67% 30.09 pul 6.2 mi NE 9.2 mph - N/A   Parcialmente nublado
3:00 PM 60 ° F 49 ° F 58% 30.10 pul - ENE 12.7 mph - -  
3:00 PM 57.2 ° F 48.2 ° F 72% 30.09 pul 6.2 mi NE 12.7 mph - N/A   Parcialmente nublado
3:30 PM 59.0 ° F 48.2 ° F 67% 30.09 pul 6.2 mi NE 11.5 mph - N/A   Parcialmente nublado
4:00 PM 61 ° F 50 ° F 57% 30.09 pul - NE 15.0 mph - -  
4:00 PM 57.2 ° F 48.2 ° F 72% 30.06 pul 6.2 mi NE 16.1 mph - N/A   Parcialmente nublado
4:30 PM 57.2 ° F 50.0 ° F 77% 30.06 pul 6.2 mi NE 15.0 mph - N/A   Parcialmente nublado
5:00 PM 60 ° F 51 ° F 64% 30.08 pul 12 mi NE 17.3 mph - -   Nubes dispersas
5:00 PM 57.2 ° F 50.0 ° F 77% 30.06 pul 6.2 mi NE 18.4 mph - N/A   Parcialmente nublado
5:30 PM 59.0 ° F 51.8 ° F 77% 30.06 pul 6.2 mi NE 13.8 mph - N/A   Parcialmente nublado
6:00 PM 60 ° F 53 ° F 69% 30.06 pul - NE 16.1 mph - -  
6:00 PM 60.8 ° F 50.0 ° F 68% 30.04 pul - ENE 10.4 mph - N/A   Despejado
6:30 PM 60.8 ° F 50.0 ° F 68% 30.04 pul - ENE 10.4 mph - N/A   Despejado
7:00 PM 60 ° F 51 ° F 65% 30.05 pul - ENE 16.1 mph - -  
7:00 PM 59.0 ° F 50.0 ° F 72% 30.04 pul - ENE 10.4 mph - N/A   Despejado
7:30 PM 59.0 ° F 50.0 ° F 72% 30.04 pul - Este 11.5 mph - N/A   Despejado
8:00 PM 60 ° F 52 ° F 67% 30.05 pul 12 mi ENE 11.5 mph - -   Despejado
8:00 PM 59.0 ° F 50.0 ° F 72% 30.04 pul - Este 10.4 mph - N/A   Despejado
8:30 PM 57.2 ° F 51.8 ° F 82% 30.04 pul - ENE 8.1 mph - N/A   Despejado
9:00 PM 58 ° F 52 ° F 73% 30.05 pul - Este 10.4 mph - -  
9:00 PM 57.2 ° F 51.8 ° F 82% 30.04 pul - Este 6.9 mph - N/A   Despejado
9:30 PM 55.4 ° F 51.8 ° F 88% 30.04 pul - Este 5.8 mph - N/A   Despejado
10:00 PM 55.4 ° F 51.8 ° F 88% 30.04 pul - Este 9.2 mph - N/A   Despejado
10:30 PM 55.4 ° F 51.8 ° F 88% 30.04 pul - Este 4.6 mph - N/A   Despejado
11:00 PM 55.4 ° F 51.8 ° F 88% 30.04 pul - Este 3.5 mph - N/A   Despejado
11:30 PM 55.4 ° F 50.0 ° F 82% 30.04 pul 6.2 mi Este 4.6 mph - N/A   Desconocido